This is the latest recevied weather packets stored in our database for station/object KC3ELT-10. If no packets are shown the sender has not sent any weather packets the latest 10 day(s).
| Time | Temp. | Humidity | Pressure | Rain* | Wind** | Luminosity | Snow |
|---|---|---|---|---|---|---|---|
| 1778127779 | 9.44° C | 87% | 1004.2 hPa | 0 mm | 0.45 m/s, 347° | - | - |
| 1778127479 | 9.44° C | 87% | 1004.2 hPa | 0 mm | 0.89 m/s, 7° | - | - |
| 1778127179 | 9.44° C | 87% | 1004.7 hPa | 0 mm | 1.34 m/s, 0° | - | - |
| 1778126879 | 9.44° C | 87% | 1004.7 hPa | 0 mm | 0.89 m/s, 359° | - | - |
| 1778126579 | 9.44° C | 88% | 1004.7 hPa | 0 mm | 1.79 m/s, 20° | - | - |
| 1778126279 | 9.44° C | 88% | 1004.3 hPa | 0 mm | 1.34 m/s, 358° | - | - |
| 1778125979 | 9.44° C | 88% | 1004.3 hPa | 0 mm | 0.89 m/s, 333° | - | - |
| 1778125679 | 9.44° C | 88% | 1004.3 hPa | 0 mm | 1.34 m/s, 356° | - | - |
| 1778125379 | 9.44° C | 88% | 1004.2 hPa | 0 mm | 1.79 m/s, 349° | - | - |
| 1778125079 | 9.44° C | 88% | 1004.2 hPa | 0 mm | 1.79 m/s, 357° | - | - |
| 1778124779 | 9.44° C | 88% | 1004.2 hPa | 0 mm | 1.34 m/s, 0° | - | - |
| 1778124479 | 9.44° C | 88% | 1003.8 hPa | 0 mm | 0.89 m/s, 0° | - | - |
| 1778124179 | 9.44° C | 88% | 1003.8 hPa | 0 mm | 2.24 m/s, 0° | - | - |
| 1778123879 | 9.44° C | 88% | 1003.8 hPa | 0 mm | 1.34 m/s, 354° | - | - |
| 1778123579 | 9.44° C | 88% | 1003.8 hPa | 0 mm | 0.89 m/s, 349° | - | - |
| 1778123279 | 10° C | 89% | 1003.8 hPa | 0 mm | 1.34 m/s, 1° | - | - |
| 1778122979 | 10° C | 89% | 1003.8 hPa | 0 mm | 1.79 m/s, 0° | - | - |
| 1778122679 | 10° C | 89% | 1004 hPa | 0 mm | 1.79 m/s, 359° | - | - |
| 1778122379 | 10° C | 89% | 1004 hPa | 0 mm | 1.79 m/s, 347° | - | - |
| 1778122079 | 10° C | 89% | 1004 hPa | 0 mm | 1.79 m/s, 4° | - | - |
| 1778121779 | 10° C | 89% | 1004.1 hPa | 0 mm | 1.79 m/s, 0° | - | - |
| 1778121479 | 10.56° C | 89% | 1004.1 hPa | 0 mm | 0.89 m/s, 1° | - | - |
| 1778121179 | 10.56° C | 89% | 1004.1 hPa | 0 mm | 1.34 m/s, 1° | - | - |
| 1778120879 | 10.56° C | 89% | 1004 hPa | 0 mm | 1.79 m/s, 345° | - | - |
| 1778120579 | 10.56° C | 89% | 1004 hPa | 0 mm | 1.79 m/s, 0° | - | - |
* Rain latest hour (hover to see other rain measurements)
** Current wind speed in m/s (hover to see current wind gust speed)